Weather History for KJES - May, 2014

Change the Weather History Date:

Thursday, May 8, 2014

  Actual Average (KAMG) Record (KAMG)
Temperature  
Mean Temperature 74 °F 72 °F  
Max Temperature 89 °F 84 °F 95 °F (1962)
Min Temperature 60 °F 59 °F 42 °F (1958)
Degree Days  
Heating Degree Days 0 0  
Month to date heating degree days 3  
Since 1 July heating degree days 1656  
Cooling Degree Days 10 7  
Month to date cooling degree days 49  
Year to date cooling degree days 203  
Growing Degree Days 24 (Base 50)    
Moisture  
Dew Point 65 °F    
Average Humidity 78    
Maximum Humidity 100    
Minimum Humidity 36    
Precipitation  
Precipitation 0.00 in 0.06 in 3.61 in (1966)
Month to date precipitation 0.54  
Year to date precipitation 16.16  
Snow  
Snow 0.00 in 0.00 in 0.00 in ()
Month to date snowfall 0.0  
Since 1 July snowfall 0.1  
Snow Depth -    
Sea Level Pressure  
Sea Level Pressure 30.18 in    
Wind  
Wind Speed 2 mph (SSW)    
Max Wind Speed 13 mph    
Max Gust Speed 17 mph    
Visibility 8 miles    
Events Fog    
T = Trace of Precipitation, MM = Missing Value Source: NWS Daily Summary

Daily Weather History Graph

Daily Weather History Graph

Search for Another Location

Airport or City:

Trip Planner

Search our weather history database for the weather conditions in past years. The results will help you decide how hot, cold, wet, or windy it might be!

Date:

Astronomy

May. 08, 2014 Rise Set
Actual Time 6:36 AM EDT 8:12 PM EDT
Civil Twilight 6:09 AM EDT 8:38 PM EDT
Nautical Twilight 5:38 AM EDT 9:10 PM EDT
Astronomical Twilight 5:05 AM EDT 9:43 PM EDT
Moon 2:33 PM EDT (5/8) 2:43 AM EDT (5/8)
Length of Visible Light 14h 28m
Length of Day
13h 36m
Waxing Gibbous, 64% of the Moon is Illuminated
May 8
Waxing Gibbous
May 14
Full
May 21
Last Quarter
May 28
New
Jun 5
First Quarter

Hourly Weather History & Observations

Time (EDT) Temp. Heat Index Dew Point Humidity Pressure Visibility Wind Dir Wind Speed Gust Speed Precip Events Conditions
12:35 AM 68.0 °F - 68.0 °F 100% 30.16 in 10.0 mi Calm Calm - N/A   Clear
12:55 AM 66.2 °F - 66.2 °F 100% 30.15 in 10.0 mi Calm Calm - N/A   Clear
1:15 AM 66.2 °F - 66.2 °F 100% 30.15 in 10.0 mi Calm Calm - N/A   Clear
1:35 AM 64.4 °F - 64.4 °F 100% 30.16 in 10.0 mi Calm Calm - N/A   Clear
1:55 AM 64.4 °F - 64.4 °F 100% 30.15 in 10.0 mi Calm Calm - N/A   Clear
2:15 AM 64.4 °F - 64.4 °F 100% 30.15 in 0.8 mi Calm Calm - N/A   Mist
2:35 AM 64.4 °F - 64.4 °F 100% 30.14 in 0.8 mi Calm Calm - N/A   Mist
2:55 AM 62.6 °F - 62.6 °F 100% 30.13 in 1.0 mi Calm Calm - N/A   Overcast
3:15 AM 64.4 °F - 64.4 °F 100% 30.13 in 0.5 mi Calm Calm - N/A Fog Fog
3:35 AM 64.4 °F - 64.4 °F 100% 30.14 in 0.8 mi Calm Calm - N/A   Mostly Cloudy
3:55 AM 64.4 °F - 64.4 °F 100% 30.14 in 5.0 mi Calm Calm - N/A   Scattered Clouds
4:15 AM 62.6 °F - 62.6 °F 100% 30.15 in 0.2 mi Calm Calm - N/A Fog Fog
4:35 AM 62.6 °F - 62.6 °F 100% 30.16 in 0.2 mi Calm Calm - N/A Fog Fog
4:55 AM 62.6 °F - 62.6 °F 100% 30.16 in 0.2 mi Calm Calm - N/A Fog Fog
5:15 AM 62.6 °F - 62.6 °F 100% 30.16 in 0.2 mi Calm Calm - N/A Fog Fog
5:35 AM 62.6 °F - 62.6 °F 100% 30.17 in 0.5 mi Calm Calm - N/A Fog Fog
5:50 AM 62.6 °F - 62.6 °F 100% 30.17 in 0.2 mi Calm Calm - N/A Fog Fog
6:35 AM 60.8 °F - 60.8 °F 100% 30.18 in 0.2 mi Calm Calm - N/A Fog Fog
6:55 AM 60.8 °F - 60.8 °F 100% 30.19 in 0.2 mi Calm Calm - N/A Fog Fog
7:15 AM 60.8 °F - 60.8 °F 100% 30.20 in 0.5 mi Calm Calm - N/A Fog Fog
7:35 AM 62.6 °F - 62.6 °F 100% 30.20 in 0.2 mi Calm Calm - N/A Fog Fog
7:55 AM 62.6 °F - 62.6 °F 100% 30.21 in 0.2 mi Calm Calm - N/A Fog Fog
8:15 AM 64.4 °F - 64.4 °F 100% 30.22 in 0.2 mi Calm Calm - N/A Fog Fog
8:35 AM 68.0 °F - 68.0 °F 100% 30.22 in 10.0 mi SW 3.5 mph - N/A   Scattered Clouds
8:55 AM 69.8 °F - 69.8 °F 100% 30.23 in 10.0 mi SW 5.8 mph - N/A   Clear
9:15 AM 71.6 °F - 69.8 °F 94% 30.24 in 10.0 mi SW 6.9 mph - N/A   Clear
9:35 AM 73.4 °F - 69.8 °F 88% 30.24 in 10.0 mi SW 6.9 mph - N/A   Clear
9:55 AM 77.0 °F - 69.8 °F 78% 30.24 in 10.0 mi WSW 8.1 mph - N/A   Clear
10:15 AM 78.8 °F - 69.8 °F 74% 30.24 in 10.0 mi WSW 8.1 mph - N/A   Clear
10:35 AM 78.8 °F - 68.0 °F 69% 30.24 in 10.0 mi SW 9.2 mph - N/A   Clear
10:55 AM 80.6 °F 83.9 °F 69.8 °F 70% 30.24 in 10.0 mi SW 5.8 mph - N/A   Clear
11:15 AM 80.6 °F 83.9 °F 69.8 °F 70% 30.24 in 10.0 mi West 4.6 mph - N/A   Clear
11:35 AM 82.4 °F 85.4 °F 68.0 °F 62% 30.24 in 10.0 mi WSW 8.1 mph - N/A   Clear
11:55 AM 82.4 °F 84.6 °F 66.2 °F 58% 30.23 in 10.0 mi West 5.8 mph - N/A   Clear
12:15 PM 84.2 °F 87.3 °F 68.0 °F 58% 30.23 in 10.0 mi SW 4.6 mph - N/A   Clear
12:35 PM 84.2 °F 86.6 °F 66.2 °F 55% 30.21 in 10.0 mi SW 9.2 mph - N/A   Clear
12:55 PM 86.0 °F 87.3 °F 64.4 °F 48% 30.21 in 10.0 mi WSW 5.8 mph - N/A   Clear
1:15 PM 86.0 °F 88.2 °F 66.2 °F 51% 30.21 in 10.0 mi SW 8.1 mph - N/A   Clear
1:35 PM 86.0 °F 87.3 °F 64.4 °F 48% 30.21 in 10.0 mi SW 6.9 mph - N/A   Clear
1:55 PM 87.8 °F 88.5 °F 62.6 °F 43% 30.20 in 10.0 mi SW 6.9 mph - N/A   Clear
2:15 PM 87.8 °F 88.5 °F 62.6 °F 43% 30.20 in 10.0 mi Calm Calm - N/A   Clear
2:35 PM 87.8 °F 87.6 °F 60.8 °F 40% 30.19 in 10.0 mi South 4.6 mph - N/A   Clear
2:55 PM 89.6 °F 89.5 °F 60.8 °F 38% 30.18 in 10.0 mi SSE 4.6 mph - N/A   Clear
3:15 PM 89.6 °F 88.9 °F 59.0 °F 36% 30.17 in 10.0 mi SSE 3.5 mph - N/A   Clear
3:35 PM 89.6 °F 89.5 °F 60.8 °F 38% 30.16 in 10.0 mi South 5.8 mph - N/A   Clear
3:55 PM 89.6 °F 88.9 °F 59.0 °F 36% 30.15 in 10.0 mi South 4.6 mph - N/A   Clear
4:15 PM 89.6 °F 90.1 °F 62.6 °F 40% 30.14 in 10.0 mi Calm Calm - N/A   Clear
4:35 PM 89.6 °F 89.5 °F 60.8 °F 38% 30.14 in 10.0 mi SSW 5.8 mph - N/A   Clear
4:55 PM 87.8 °F 87.6 °F 60.8 °F 40% 30.13 in 10.0 mi SE 4.6 mph - N/A   Clear
5:15 PM 89.6 °F 89.5 °F 60.8 °F 38% 30.14 in 10.0 mi SSW 5.8 mph - N/A   Clear
5:35 PM 86.0 °F 89.4 °F 68.0 °F 55% 30.14 in 10.0 mi SSE 11.5 mph 17.3 mph N/A   Clear
5:55 PM 86.0 °F 89.4 °F 68.0 °F 55% 30.14 in 10.0 mi SSE 12.7 mph 17.3 mph N/A   Clear
6:15 PM 84.2 °F 85.6 °F 64.4 °F 51% 30.14 in 10.0 mi SE 5.8 mph - N/A   Clear
6:35 PM 82.4 °F 83.9 °F 64.4 °F 54% 30.14 in 10.0 mi SSE 8.1 mph - N/A   Clear
6:55 PM 80.6 °F 82.3 °F 64.4 °F 58% 30.14 in 10.0 mi SE 4.6 mph - N/A   Clear
7:15 PM 78.8 °F - 64.4 °F 61% 30.15 in 10.0 mi SSE 6.9 mph - N/A   Clear
7:35 PM 77.0 °F - 66.2 °F 69% 30.15 in 10.0 mi SE 6.9 mph - N/A   Clear
7:55 PM 77.0 °F - 68.0 °F 74% 30.16 in 10.0 mi SSE 4.6 mph - N/A   Clear
8:15 PM 73.4 °F - 68.0 °F 83% 30.17 in 10.0 mi SE 3.5 mph - N/A   Clear
8:35 PM 73.4 °F - 68.0 °F 83% 30.18 in 10.0 mi SSE 3.5 mph - N/A   Clear
8:55 PM 71.6 °F - 68.0 °F 88% 30.19 in 10.0 mi Calm Calm - N/A   Clear
9:15 PM 71.6 °F - 68.0 °F 88% 30.19 in 10.0 mi Calm Calm - N/A   Clear
9:35 PM 71.6 °F - 69.8 °F 94% 30.19 in 10.0 mi Calm Calm - N/A   Clear
9:55 PM 71.6 °F - 69.8 °F 94% 30.20 in 10.0 mi Calm Calm - N/A   Clear
10:15 PM 71.6 °F - 69.8 °F 94% 30.19 in 10.0 mi Calm Calm - N/A   Clear
10:35 PM 69.8 °F - 69.8 °F 100% 30.20 in 10.0 mi SSE 3.5 mph - N/A   Clear
10:55 PM 69.8 °F - 69.8 °F 100% 30.19 in 10.0 mi SSE 4.6 mph - N/A   Clear
11:15 PM 69.8 °F - 69.8 °F 100% 30.19 in 10.0 mi Calm Calm - N/A   Clear
11:35 PM 69.8 °F - 69.8 °F 100% 30.19 in 10.0 mi South 3.5 mph - N/A   Clear
11:55 PM 69.8 °F - 69.8 °F 100% 30.19 in 10.0 mi South 3.5 mph - N/A   Clear